Date String (YYYY-MM-DD hh:mm:ss) UTC,Instrument flags,absolute air pressure of the measurement (hPa),sample flow rate (lpm),inlet stack bypass flow (lpm),air temperature of the measurement (°C),ambient temperature measured by the external sensor (°C),aerosol sample conditioner tube jacket temperature (°C),OPC LED temperature (°C),internal box temperature (°C),relative humidity of the measurement (%),span deviation,mass concentration of particles derived from Lorenz-Mie calculation of OPC scattering (μg/m³),mass concentration of particles derived from Lorenz-Mie calculation of OPC scattering (μg/m³),mass concentration of particles derived from Lorenz-Mie calculation of OPC scattering (μg/m³)
DateTimeUTC,F1_M11,P_M11,Q1_M11,Q2_M11,T1_M11,T2_M11,T3_M11,T4_M11,T5_M11,U1_M11,ZSPAN_M11,X0_M11,X2_M11,X1_M11
2024-01-20 19:00:00,SystemResetWarning,0826.5,5.01,000.00,018.8,017.8,000.0,027.3,020.0,14.0,0002.8,0018.04,0012.35,0011.55
2024-01-20 19:01:00,SystemResetWarning,0826.4,4.99,000.00,018.8,017.8,000.0,027.3,020.0,13.9,0002.2,0018.63,0012.43,0011.61
2024-01-20 19:02:00,SystemResetWarning,0826.4,5.00,000.00,018.8,017.8,000.0,027.3,020.0,14.0,0002.0,0018.75,0012.45,0011.66
2024-01-20 19:03:00,SystemResetWarning,0826.4,5.01,000.00,018.8,017.8,000.0,027.3,020.0,14.1,0002.0,0018.93,0012.48,0011.72
2024-01-20 19:04:00,SystemResetWarning,0826.4,5.01,000.00,018.8,017.8,000.0,027.3,020.0,14.1,0002.0,0019.02,0012.50,0011.76
2024-01-20 19:05:00,SystemResetWarning,0826.4,5.01,000.00,018.7,017.8,000.0,027.2,020.0,14.0,0002.3,0018.50,0012.56,0011.83
2024-01-20 19:06:00,SystemResetWarning,0826.4,4.99,000.00,018.7,017.9,000.0,027.2,020.0,14.2,0002.3,0018.46,0012.66,0011.93
2024-01-20 19:07:00,SystemResetWarning,0826.4,4.99,000.00,018.7,017.9,000.0,027.2,020.0,14.2,0002.4,0018.53,0012.71,0011.98
2024-01-20 19:08:00,SystemResetWarning,0826.3,5.00,000.00,018.7,017.9,000.0,027.2,020.0,14.1,0002.2,0018.95,0012.72,0011.95
2024-01-20 19:09:00,SystemResetWarning,0826.2,5.01,000.00,018.7,017.9,000.0,027.2,020.0,14.1,0002.0,0018.71,0012.58,0011.82
2024-01-20 19:10:00,SystemResetWarning,0826.2,5.01,000.00,018.7,017.9,000.0,027.2,020.0,14.2,0002.0,0019.09,0012.47,0011.73
2024-01-20 19:11:00,SystemResetWarning,0826.3,4.99,000.00,018.7,017.9,000.0,027.2,020.0,14.2,0002.2,0018.99,0012.41,0011.70
2024-01-20 19:12:00,SystemResetWarning,0826.3,4.99,000.00,018.7,017.9,000.0,027.2,020.0,14.2,0002.0,0019.02,0012.45,0011.73
2024-01-20 19:13:00,SystemResetWarning,0826.2,4.99,000.00,018.7,017.9,000.0,027.2,020.0,14.2,0001.4,0019.11,0012.54,0011.76
2024-01-20 19:14:00,SystemResetWarning,0826.2,5.00,000.00,018.7,017.9,000.0,027.2,020.0,14.2,0001.5,0018.88,0012.56,0011.77
2024-01-20 19:15:00,SystemResetWarning,0826.2,5.01,000.00,018.7,017.9,000.0,027.2,020.0,14.4,0001.4,0018.79,0012.64,0011.86
2024-01-20 19:16:00,SystemResetWarning,0826.2,5.01,000.00,018.7,017.9,000.0,027.2,020.0,14.4,0001.2,0018.92,0012.78,0012.00
2024-01-20 19:17:00,SystemResetWarning,0826.2,5.00,000.00,018.7,017.9,000.0,027.2,020.0,14.5,0001.1,0019.16,0012.77,0012.00
2024-01-20 19:18:00,SystemResetWarning,0826.1,4.99,000.00,018.7,017.9,000.0,027.2,020.0,14.4,0001.1,0020.40,0012.74,0012.02
2024-01-20 19:19:00,SystemResetWarning,0826.1,4.99,000.00,018.7,017.9,000.0,027.2,020.0,14.4,0000.8,0020.13,0012.77,0012.07
2024-01-20 19:20:00,SystemResetWarning,0826.0,5.00,000.00,018.7,017.9,000.0,027.2,020.0,14.4,0000.8,0020.23,0012.88,0012.16
2024-01-20 19:21:00,SystemResetWarning,0826.0,5.00,000.00,018.7,017.9,000.0,027.2,020.0,14.5,0000.8,0020.11,0013.01,0012.26
2024-01-20 19:22:00,SystemResetWarning,0826.0,5.01,000.00,018.7,017.9,000.0,027.2,020.0,14.6,0000.6,0020.19,0013.17,0012.39
2024-01-20 19:23:00,SystemResetWarning,0826.0,5.00,000.00,018.7,017.9,000.0,027.2,020.0,14.7,0000.5,0019.74,0013.24,0012.49
2024-01-20 19:24:00,SystemResetWarning,0826.0,5.00,000.00,018.7,017.9,000.0,027.2,020.0,14.9,0000.8,0019.57,0013.32,0012.61
2024-01-20 19:25:00,SystemResetWarning,0825.9,4.99,000.00,018.7,017.9,000.0,027.2,020.0,14.7,0000.4,0019.91,0013.47,0012.72
2024-01-20 19:26:00,SystemResetWarning,0825.9,5.00,000.00,018.7,017.9,000.0,027.2,020.0,14.8,0000.7,0020.59,0013.61,0012.83
2024-01-20 19:27:00,SystemResetWarning,0825.9,5.00,000.00,018.7,017.9,000.0,027.2,020.0,14.9,0000.8,0021.00,0013.74,0012.90
2024-01-20 19:28:00,SystemResetWarning,0825.9,5.00,000.00,018.7,017.9,000.0,027.2,020.0,14.7,0000.7,0021.39,0013.93,0013.06
2024-01-20 19:29:00,SystemResetWarning,0825.9,5.00,000.00,018.7,017.9,000.0,027.2,020.0,14.8,0000.5,0020.76,0014.14,0013.24
2024-01-20 19:30:00,SystemResetWarning,0825.9,5.00,000.00,018.7,017.9,000.0,027.2,020.0,14.7,0000.9,0020.84,0014.31,0013.43
2024-01-20 19:31:00,SystemResetWarning,0825.9,5.00,000.00,018.7,017.9,000.0,027.2,020.0,14.7,0001.5,0021.12,0014.52,0013.63
2024-01-20 19:32:00,SystemResetWarning,0825.9,5.00,000.00,018.7,017.9,000.0,027.2,020.0,14.8,0001.7,0020.95,0014.67,0013.82
2024-01-20 19:33:00,SystemResetWarning,0825.9,5.00,000.00,018.7,017.9,000.0,027.2,020.0,15.0,0001.8,0020.92,0014.77,0013.95
2024-01-20 19:34:00,SystemResetWarning,0825.7,5.00,000.00,018.7,017.9,000.0,027.2,020.0,15.0,0001.9,0021.19,0014.97,0014.12
2024-01-20 19:35:00,SystemResetWarning,0825.7,5.00,000.00,018.7,017.9,000.0,027.2,020.0,15.0,0002.1,0021.36,0015.10,0014.25
2024-01-20 19:36:00,SystemResetWarning,0825.7,5.00,000.00,018.7,017.9,000.0,027.2,020.0,15.2,0002.3,0021.54,0015.14,0014.35
2024-01-20 19:37:00,SystemResetWarning,0825.7,5.00,000.00,018.7,018.0,000.0,027.2,020.0,15.0,0002.2,0021.07,0015.18,0014.41
2024-01-20 19:38:00,SystemResetWarning,0825.7,5.01,000.00,018.7,018.0,000.0,027.2,020.0,15.0,0002.5,0021.07,0015.17,0014.44
2024-01-20 19:39:00,SystemResetWarning,0825.7,5.01,000.00,018.7,018.0,000.0,027.2,020.0,15.0,0002.5,0021.19,0015.23,0014.54
2024-01-20 19:40:00,SystemResetWarning,0825.7,5.01,000.00,018.7,018.0,000.0,027.2,020.0,15.0,0002.5,0020.64,0015.28,0014.63
2024-01-20 19:41:00,SystemResetWarning,0825.7,5.00,000.00,018.7,018.0,000.0,027.2,020.0,15.1,0002.4,0020.92,0015.33,0014.70
2024-01-20 19:42:00,SystemResetWarning,0825.6,5.00,000.00,018.7,018.0,000.0,027.2,020.0,15.1,0002.3,0021.62,0015.36,0014.71
2024-01-20 19:43:00,SystemResetWarning,0825.7,4.99,000.00,018.7,018.0,000.0,027.2,020.0,15.2,0002.3,0021.82,0015.33,0014.68
2024-01-20 19:44:00,SystemResetWarning,0825.7,4.99,000.00,018.7,018.0,000.0,027.2,020.0,15.0,0002.2,0022.58,0015.33,0014.65
2024-01-20 19:45:00,SystemResetWarning,0825.7,4.99,000.00,018.7,018.0,000.0,027.2,020.0,15.0,0002.4,0022.98,0015.30,0014.63
2024-01-20 19:46:00,SystemResetWarning,0825.6,5.00,000.00,018.7,018.0,000.0,027.2,020.0,15.1,0002.2,0022.92,0015.25,0014.59
2024-01-20 19:47:00,SystemResetWarning,0825.5,5.00,000.00,018.8,018.0,000.0,027.2,020.0,15.1,0002.1,0022.79,0015.29,0014.61
2024-01-20 19:48:00,SystemResetWarning,0825.5,5.01,000.00,018.8,018.0,000.0,027.2,020.0,15.2,0001.9,0022.69,0015.37,0014.72
2024-01-20 19:49:00,SystemResetWarning,0825.4,5.00,000.00,018.7,018.0,000.0,027.2,020.0,15.2,0001.6,0023.01,0015.55,0014.88
2024-01-20 19:50:00,SystemResetWarning,0825.5,5.00,000.00,018.7,018.0,000.0,027.2,020.0,15.3,0001.1,0022.97,0015.61,0014.91
2024-01-20 19:51:00,SystemResetWarning,0825.5,5.00,000.00,018.7,018.0,000.0,027.2,020.0,15.2,0000.8,0022.77,0015.60,0014.91
2024-01-20 19:52:00,SystemResetWarning,0825.5,5.00,000.00,018.7,018.0,000.0,027.2,020.0,15.2,0000.8,0022.81,0015.63,0014.89
2024-01-20 19:53:00,SystemResetWarning,0825.5,5.00,000.00,018.7,018.0,000.0,027.2,020.0,15.3,0000.4,0022.57,0015.64,0014.88
2024-01-20 19:54:00,SystemResetWarning,0825.5,4.99,000.00,018.7,018.0,000.0,027.2,020.0,15.3,0000.4,0022.42,0015.62,0014.88
2024-01-20 19:55:00,SystemResetWarning,0825.4,5.00,000.00,018.7,018.0,000.0,027.1,020.0,15.2,0000.4,0022.54,0015.61,0014.86
2024-01-20 19:56:00,SystemResetWarning,0825.4,5.00,000.00,018.7,018.1,000.0,027.1,020.0,15.3,0000.4,0022.04,0015.62,0014.84
2024-01-20 19:57:00,SystemResetWarning,0825.4,5.01,000.00,018.7,018.1,000.0,027.1,020.0,15.3,0000.3,0021.95,0015.64,0014.85
2024-01-20 19:58:00,SystemResetWarning,0825.4,5.00,000.00,018.7,018.1,000.0,027.1,020.0,15.4,0000.2,0023.06,0015.73,0014.88
2024-01-20 19:59:00,SystemResetWarning,0825.3,5.01,000.00,018.7,018.1,000.0,027.2,020.0,15.4,0000.7,0024.21,0015.68,0014.80
